WP4MXZ San Sebastian PR US current weather conditions

sailwx.info

Wind from 202

Air temperature 23.3° C
Dewpoint 23.3° C

Last reported at 2016-Aug-29 11:35 UTC.
Time now 2016-Aug-29 13:01 UTC

Location: N 18°20' W 067°00'.
View on Google Maps.

See reports from other nearby stations

  
Tides and Currents Weather Stations Pressure Air Temp Water Temp Dewpoint Dewpoint Depression Visibility Wind Speed Wind Dir Waves Ship Positions
date/time (UTC)wind fromknots sea level pressurealtimeterstation pressurevisibilityair tempwater tempwave heightnotes
2016-Aug-29 11:35 202 23.3
2016-Aug-29 11:05 202 22.2
2016-Aug-29 10:35 202 21.7
2016-Aug-29 10:05 203 21.7
2016-Aug-29 09:35 202 21.7
2016-Aug-29 09:05 202 21.7
2016-Aug-29 08:35 202 21.7
2016-Aug-29 08:05 202 21.7
2016-Aug-29 07:35 202 21.7
2016-Aug-29 07:05 202 21.7
2016-Aug-29 06:35 202 21.7
2016-Aug-29 06:05 202 21.7
2016-Aug-29 05:35 202 22.2
2016-Aug-29 05:05 202 22.2
2016-Aug-29 04:35 202 22.8
2016-Aug-29 04:05 202 22.8
2016-Aug-29 03:35 202 22.8
2016-Aug-29 03:05 202 22.8
2016-Aug-29 02:35 202 23.3
2016-Aug-29 02:05 202 23.3
2016-Aug-29 01:05 202 23.9
2016-Aug-29 00:35 273 23.9
2016-Aug-29 00:04 273 24.4
2016-Aug-28 23:04 273 25.0
2016-Aug-28 22:35 273 26.1
2016-Aug-28 22:04 279 27.2
2016-Aug-28 21:35 278 27.2
2016-Aug-28 21:05 278 27.2
2016-Aug-28 20:35 247 0 26.1
2016-Aug-28 20:05 196 3 25.6
2016-Aug-28 19:34 227 24.4
2016-Aug-28 18:35 270 24.4
2016-Aug-28 17:35 356 31.1
2016-Aug-28 17:05 061 32.8
2016-Aug-28 16:35 152 32.8
2016-Aug-28 16:05 078 1 32.8
2016-Aug-28 15:35 181 32.2
2016-Aug-28 15:05 072 31.1
2016-Aug-28 14:35 173 31.1
2016-Aug-28 13:35 245 29.4
2016-Aug-28 13:05 246 28.3
2016-Aug-28 12:35 158 26.7
2016-Aug-28 11:35 158 22.8
2016-Aug-28 11:05 158 21.7
2016-Aug-28 10:05 158 21.1
2016-Aug-28 09:35 158 21.1
2016-Aug-28 09:05 158 21.7
2016-Aug-28 08:35 158 21.7
2016-Aug-28 07:35 158 21.7
2016-Aug-28 07:05 158 21.7
2016-Aug-28 06:35 158 22.2
2016-Aug-28 05:35 158 22.8
2016-Aug-28 05:05 158 22.8
2016-Aug-28 04:05 158 22.8
2016-Aug-28 03:35 158 23.3
2016-Aug-28 03:05 158 23.3
2016-Aug-28 02:35 158 23.3
2016-Aug-28 02:05 158 23.3
2016-Aug-28 01:35 158 23.9
2016-Aug-28 00:35 158 23.9
2016-Aug-27 23:35 158 24.4
2016-Aug-27 22:35 158 25.0
2016-Aug-27 22:05 158 25.0
2016-Aug-27 21:05 180 25.0
2016-Aug-27 20:35 266 25.0
2016-Aug-27 20:05 266 24.4
2016-Aug-27 19:35 266 23.9
2016-Aug-27 19:05 159 24.4
2016-Aug-27 18:34 230 3 26.7
2016-Aug-27 18:05 170 28.9
2016-Aug-27 17:35 008 30.6
2016-Aug-27 17:05 045 0 31.1
2016-Aug-27 16:35 281 1 32.2
2016-Aug-27 16:05 003 32.2
2016-Aug-27 15:35 254 3 32.2
2016-Aug-27 15:05 194 31.7
2016-Aug-27 14:35 300 31.1
2016-Aug-27 14:05 015 30.6
2016-Aug-27 13:05 178 28.9